• In Belarus
  • List of Countries
  • For 7 days
  • Water Temperature
  • Satellite Maps
  • Weather Map
  • Weather Widgets
  • user-avatar
    Login

    Hourly Weather Verhovina

    Today, 11 December, Monday

    Time Temperature Precipitation Wind Pressure Humidity
    00:00 -8°C° 0 mm 4 mps 689 mmHg 70%
    01:00 -7°C° 0 mm 5 mps 689 mmHg 67%
    02:00 -5°C° 0 mm 3 mps 688 mmHg 72%
    03:00 -5°C° 0 mm 3 mps 689 mmHg 74%
    04:00 -4°C° 0 mm 4 mps 689 mmHg 76%
    05:00 -4°C° 0 mm 4 mps 689 mmHg 77%
    06:00 -3°C° 0 mm 4 mps 689 mmHg 78%
    07:00 -2°C° 0 mm 4 mps 689 mmHg 79%
    08:00 -1°C° 0 mm 3 mps 689 mmHg 81%
    09:00 -1°C° 0.1 mm 4 mps 689 mmHg 81%
    10:00 0°C° 0.1 mm 4 mps 690 mmHg 81%
    11:00 +1°C° 0.1 mm 5 mps 690 mmHg 80%
    12:00 +2°C° 0 mm 5 mps 690 mmHg 80%
    13:00 +3°C° 0 mm 4 mps 690 mmHg 80%
    14:00 +4°C° 0 mm 4 mps 690 mmHg 80%
    15:00 +3°C° 0 mm 4 mps 690 mmHg 81%
    16:00 +3°C° 0 mm 4 mps 690 mmHg 81%
    17:00 +3°C° 0 mm 4 mps 690 mmHg 82%
    18:00 +3°C° 0 mm 4 mps 690 mmHg 82%
    19:00 +3°C° 0 mm 3 mps 691 mmHg 82%
    20:00 +3°C° 0 mm 3 mps 691 mmHg 83%
    21:00 +3°C° 0 mm 3 mps 691 mmHg 82%
    22:00 +3°C° 0 mm 4 mps 691 mmHg 81%
    23:00 +3°C° 0 mm 4 mps 691 mmHg 81%

    Tomorrow, 12 December, Tuesday

    Time Temperature Precipitation Wind Pressure Humidity
    00:00 +3°C° 0 mm 4 mps 692 mmHg 80%
    01:00 +3°C° 0 mm 4 mps 692 mmHg 80%
    02:00 +3°C° 0 mm 4 mps 692 mmHg 79%
    03:00 +3°C° 0 mm 4 mps 692 mmHg 79%
    04:00 +3°C° 0 mm 4 mps 692 mmHg 78%
    05:00 +4°C° 0 mm 4 mps 692 mmHg 78%
    06:00 +3°C° 0 mm 5 mps 692 mmHg 77%
    07:00 +3°C° 0 mm 5 mps 692 mmHg 76%
    08:00 +5°C° 0 mm 5 mps 692 mmHg 76%
    09:00 +5°C° 0 mm 5 mps 693 mmHg 74%
    10:00 +6°C° 0 mm 5 mps 693 mmHg 73%
    11:00 +7°C° 0 mm 5 mps 694 mmHg 72%
    12:00 +8°C° 0 mm 5 mps 694 mmHg 72%
    13:00 +8°C° 0 mm 5 mps 694 mmHg 73%
    14:00 +8°C° 0 mm 4 mps 694 mmHg 74%
    15:00 +7°C° 0 mm 4 mps 694 mmHg 78%
    16:00 +7°C° 0 mm 3 mps 695 mmHg 81%
    17:00 +5°C° 0 mm 3 mps 695 mmHg 85%
    18:00 +5°C° 0 mm 3 mps 695 mmHg 85%
    19:00 +4°C° 0 mm 3 mps 695 mmHg 86%
    20:00 +4°C° 0 mm 3 mps 696 mmHg 86%
    21:00 +4°C° 0 mm 3 mps 696 mmHg 85%
    22:00 +4°C° 0 mm 3 mps 696 mmHg 85%
    23:00 +4°C° 0 mm 3 mps 696 mmHg 84%

    Day after tomorrow, 13 December, Wednesday

    Time Temperature Precipitation Wind Pressure Humidity
    00:00 +4°C° 0 mm 3 mps 696 mmHg 84%
    01:00 +4°C° 0 mm 3 mps 696 mmHg 84%
    02:00 +5°C° 0 mm 2 mps 696 mmHg 84%
    03:00 +4°C° 0 mm 2 mps 696 mmHg 86%
    04:00 +4°C° 0 mm 2 mps 696 mmHg 87%
    05:00 +4°C° 0 mm 2 mps 696 mmHg 88%
    06:00 +3°C° 0.3 mm 2 mps 696 mmHg 90%
    07:00 +3°C° 0.3 mm 2 mps 696 mmHg 91%
    08:00 +2°C° 0.3 mm 2 mps 696 mmHg 93%
    09:00 +2°C° 0.8 mm 2 mps 697 mmHg 93%
    10:00 +2°C° 0.8 mm 2 mps 697 mmHg 93%
    11:00 +2°C° 0.8 mm 2 mps 697 mmHg 93%
    12:00 +3°C° 0.7 mm 1 mps 697 mmHg 92%
    13:00 +3°C° 0.7 mm 1 mps 697 mmHg 92%
    14:00 +2°C° 0.7 mm 1 mps 697 mmHg 92%
    15:00 +2°C° 0.2 mm 1 mps 697 mmHg 92%
    16:00 +2°C° 0.2 mm 1 mps 697 mmHg 93%
    17:00 +1°C° 0.2 mm 1 mps 697 mmHg 94%
    18:00 +1°C° 0.1 mm 1 mps 697 mmHg 94%
    19:00 0°C° 0.1 mm 0 mps 697 mmHg 94%
    20:00 0°C° 0.1 mm 0 mps 696 mmHg 95%
    21:00 +1°C° 0.1 mm 1 mps 696 mmHg 95%
    22:00 +1°C° 0.1 mm 1 mps 696 mmHg 95%
    23:00 +1°C° 0.1 mm 1 mps 696 mmHg 95%

    14 December, Thursday

    Time Temperature Precipitation Wind Pressure Humidity
    00:00 +1°C° 0.1 mm 1 mps 696 mmHg 95%
    01:00 +1°C° 0.1 mm 1 mps 695 mmHg 95%
    02:00 +1°C° 0.1 mm 1 mps 695 mmHg 95%
    03:00 0°C° 0 mm 1 mps 695 mmHg 94%
    04:00 0°C° 0 mm 1 mps 694 mmHg 94%
    05:00 -1°C° 0 mm 1 mps 694 mmHg 94%
    06:00 -1°C° 0 mm 1 mps 694 mmHg 93%
    07:00 -3°C° 0 mm 2 mps 694 mmHg 92%
    08:00 -3°C° 0 mm 2 mps 694 mmHg 91%
    09:00 -2°C° 0 mm 2 mps 694 mmHg 87%
    10:00 -1°C° 0 mm 2 mps 694 mmHg 83%
    11:00 +2°C° 0 mm 2 mps 694 mmHg 80%
    12:00 +2°C° 0 mm 2 mps 693 mmHg 78%
    13:00 +3°C° 0 mm 2 mps 693 mmHg 77%
    14:00 +3°C° 0 mm 2 mps 693 mmHg 76%
    15:00 +1°C° 0 mm 3 mps 692 mmHg 79%
    16:00 0°C° 0 mm 3 mps 692 mmHg 82%
    17:00 -1°C° 0 mm 3 mps 692 mmHg 85%
    18:00 -1°C° 0 mm 3 mps 691 mmHg 84%
    19:00 0°C° 0 mm 3 mps 691 mmHg 83%
    20:00 0°C° 0 mm 3 mps 691 mmHg 81%
    21:00 0°C° 0.1 mm 3 mps 690 mmHg 82%
    22:00 0°C° 0.1 mm 3 mps 690 mmHg 83%
    23:00 0°C° 0.1 mm 3 mps 690 mmHg 83%

    15 December, Friday

    Time Temperature Precipitation Wind Pressure Humidity
    00:00 +1°C° 0.3 mm 3 mps 689 mmHg 84%
    01:00 +1°C° 0.3 mm 3 mps 689 mmHg 85%
    02:00 +1°C° 0.3 mm 3 mps 689 mmHg 85%
    03:00 0°C° 0.3 mm 4 mps 688 mmHg 85%
    04:00 0°C° 0.3 mm 4 mps 688 mmHg 85%
    05:00 +1°C° 0.3 mm 4 mps 688 mmHg 85%
    06:00 +1°C° 0.2 mm 4 mps 688 mmHg 84%
    07:00 +1°C° 0.2 mm 5 mps 688 mmHg 84%
    08:00 +2°C° 0.2 mm 5 mps 688 mmHg 83%
    09:00 +2°C° 0.2 mm 5 mps 689 mmHg 82%
    10:00 +3°C° 0.2 mm 5 mps 689 mmHg 82%
    11:00 +4°C° 0.2 mm 4 mps 689 mmHg 81%
    12:00 +4°C° 0.2 mm 4 mps 689 mmHg 82%
    13:00 +4°C° 0.2 mm 3 mps 689 mmHg 83%
    14:00 +5°C° 0.2 mm 2 mps 688 mmHg 84%
    15:00 +5°C° 0.3 mm 2 mps 688 mmHg 86%
    16:00 +4°C° 0.3 mm 2 mps 688 mmHg 88%
    17:00 +5°C° 0.3 mm 1 mps 687 mmHg 90%
    18:00 +4°C° 0.3 mm 1 mps 687 mmHg 90%
    19:00 +4°C° 0.3 mm 1 mps 686 mmHg 90%
    20:00 +4°C° 0.3 mm 1 mps 686 mmHg 90%
    21:00 +4°C° 0.4 mm 1 mps 685 mmHg 90%
    22:00 +3°C° 0.4 mm 2 mps 685 mmHg 90%
    23:00 +3°C° 0.4 mm 2 mps 684 mmHg 90%

    16 December, Saturday

    Time Temperature Precipitation Wind Pressure Humidity
    00:00 +3°C° 0.7 mm 2 mps 683 mmHg 90%
    01:00 +3°C° 0.7 mm 2 mps 683 mmHg 89%
    02:00 +3°C° 0.7 mm 2 mps 683 mmHg 89%
    03:00 +3°C° 0.5 mm 3 mps 683 mmHg 87%
    04:00 +3°C° 0.5 mm 4 mps 683 mmHg 86%
    05:00 +3°C° 0.5 mm 5 mps 683 mmHg 84%
    06:00 +2°C° 0.4 mm 5 mps 684 mmHg 82%
    07:00 +2°C° 0.4 mm 5 mps 685 mmHg 81%
    08:00 +1°C° 0.4 mm 5 mps 685 mmHg 80%
    09:00 +1°C° 0.2 mm 5 mps 686 mmHg 80%
    10:00 0°C° 0.2 mm 5 mps 687 mmHg 81%
    11:00 0°C° 0.2 mm 4 mps 688 mmHg 81%
    12:00 0°C° 0.2 mm 4 mps 689 mmHg 80%
    13:00 +1°C° 0.2 mm 3 mps 690 mmHg 79%
    14:00 +1°C° 0.2 mm 3 mps 690 mmHg 78%
    15:00 +1°C° 0.1 mm 2 mps 691 mmHg 80%
    16:00 -1°C° 0.1 mm 2 mps 692 mmHg 83%
    17:00 +1°C° 0.1 mm 1 mps 692 mmHg 85%
    18:00 -2°C° 0.1 mm 2 mps 693 mmHg 86%
    19:00 -2°C° 0.1 mm 2 mps 693 mmHg 86%
    20:00 -2°C° 0.1 mm 2 mps 694 mmHg 87%
    21:00 -1°C° 0 mm 1 mps 694 mmHg 87%
    22:00 -1°C° 0 mm 1 mps 695 mmHg 87%
    23:00 -1°C° 0 mm 1 mps 695 mmHg 87%
    Show more